DW6383 Bellaria Igea Marina IT current weather conditions

sailwx.info

Wind from 145

Air temperature 21.7° C
Dewpoint 17.4° C

Last reported at 2019-Sep-16 21:03 UTC.
Time now 2019-Sep-16 22:13 UTC

Location: N 44°09' E 012°28'.
View on Google Maps.

See reports from other nearby stations

  
Tides and Currents Weather Stations Pressure Air Temp Water Temp Dewpoint Dewpoint Depression Visibility Wind Speed Wind Dir Waves Ship Positions
date/time (UTC)wind fromknots sea level pressurealtimeterstation pressurevisibilityair tempwater tempwave heightnotes
2019-Sep-16 21:03 145 21.7
2019-Sep-16 20:58 145 21.7
2019-Sep-16 20:48 145 21.7
2019-Sep-16 20:43 145 22.2
2019-Sep-16 20:38 145 22.2
2019-Sep-16 20:33 145 22.2
2019-Sep-16 20:28 145 22.2
2019-Sep-16 20:23 145 22.2
2019-Sep-16 20:18 145 22.8
2019-Sep-16 20:13 145 22.8
2019-Sep-16 20:08 145 22.8
2019-Sep-16 20:03 145 22.8
2019-Sep-16 19:53 145 22.8
2019-Sep-16 19:23 145 23.3
2019-Sep-16 19:18 136 1 gusting 4 23.9
2019-Sep-16 19:13 149 23.9
2019-Sep-16 18:58 138 23.9
2019-Sep-16 18:48 117 23.9
2019-Sep-16 18:43 108 23.9
2019-Sep-16 18:38 137 4 gusting 7 23.9
2019-Sep-16 18:33 148 1 gusting 6 23.9
2019-Sep-16 18:23 105 23.9
2019-Sep-16 18:18 128 6 gusting 8 23.9
2019-Sep-16 18:13 148 23.9
2019-Sep-16 18:08 138 23.9
2019-Sep-16 17:48 136 23.9
2019-Sep-16 17:43 094 5 gusting 9 23.9
2019-Sep-16 17:38 113 5 gusting 12 23.9
2019-Sep-16 17:23 151 23.9
2019-Sep-16 17:13 120 6 gusting 9 23.9
2019-Sep-16 16:58 113 5 gusting 7 24.4
2019-Sep-16 16:48 115 4 gusting 7 24.4
2019-Sep-16 16:38 105 5 gusting 7 24.4
2019-Sep-16 16:23 130 3 gusting 7 24.4
2019-Sep-16 16:18 124 24.4
2019-Sep-16 16:08 119 3 gusting 10 24.4
2019-Sep-16 16:03 091 4 gusting 10 24.4
2019-Sep-16 15:58 097 9 gusting 11 24.4
2019-Sep-16 15:48 118 7 gusting 12 24.4
2019-Sep-16 15:33 111 3 gusting 9 24.4
2019-Sep-16 15:23 084 4 gusting 10 25.0
2019-Sep-16 15:18 104 6 gusting 10 25.0
2019-Sep-16 15:13 119 6 gusting 9 25.0
2019-Sep-16 15:08 102 6 gusting 10 25.0
2019-Sep-16 15:03 104 7 gusting 8 25.0
2019-Sep-16 14:58 101 0 gusting 13 25.0
2019-Sep-16 14:38 100 3 gusting 10 25.0
2019-Sep-16 14:33 111 5 gusting 9 25.0
2019-Sep-16 14:28 084 3 gusting 9 25.0
2019-Sep-16 14:13 097 6 gusting 6 25.0
2019-Sep-16 14:08 103 25.0
2019-Sep-16 14:03 127 6 gusting 9 25.0
2019-Sep-16 13:48 111 6 gusting 9 25.0
2019-Sep-16 13:43 105 7 gusting 10 25.0
2019-Sep-16 13:38 093 6 gusting 10 25.0
2019-Sep-16 13:23 094 6 gusting 9 25.0
2019-Sep-16 13:18 066 3 gusting 9 25.0
2019-Sep-16 13:13 111 6 gusting 9 25.0
2019-Sep-16 13:08 056 4 gusting 11 25.0
2019-Sep-16 13:03 093 6 gusting 9 25.0
2019-Sep-16 12:53 076 5 gusting 9 24.4
2019-Sep-16 12:33 087 5 gusting 7 25.0
2019-Sep-16 12:18 063 5 gusting 8 25.0
2019-Sep-16 12:08 065 6 gusting 9 24.4
2019-Sep-16 12:03 070 8 gusting 9 25.0
2019-Sep-16 11:58 063 4 gusting 8 25.0
2019-Sep-16 11:53 060 3 gusting 7 24.4
2019-Sep-16 11:48 078 4 gusting 6 25.0
2019-Sep-16 11:43 108 4 gusting 6 25.0
2019-Sep-16 11:38 080 1 gusting 8 24.4
2019-Sep-16 11:33 055 5 gusting 6 25.0
2019-Sep-16 11:23 035 25.0
2019-Sep-16 11:13 078 3 gusting 6 23.9
2019-Sep-16 11:08 067 0 gusting 5 24.4
2019-Sep-16 11:03 050 2 gusting 6 23.9
2019-Sep-16 10:53 068 3 gusting 6 23.9
2019-Sep-16 10:38 061 3 gusting 5 24.4
2019-Sep-16 10:28 039 0 gusting 4 24.4
2019-Sep-16 10:23 067 24.4
2019-Sep-16 10:18 063 24.4
2019-Sep-16 10:13 076 1 gusting 4 23.9
2019-Sep-16 09:58 082 24.4
2019-Sep-16 09:38 055 4 gusting 5 23.9
2019-Sep-16 09:33 062 0 gusting 3 23.9
2019-Sep-16 09:28 057 1 gusting 4 23.9
2019-Sep-16 09:23 053 23.9
2019-Sep-16 09:18 070 2 gusting 4 23.9
2019-Sep-16 09:13 059 4 gusting 4 24.4
2019-Sep-16 09:08 073 24.4
2019-Sep-16 08:58 029 0 gusting 1 23.9
2019-Sep-16 08:48 024 1 gusting 4 23.3
2019-Sep-16 08:43 024 23.3
2019-Sep-16 08:28 049 22.8
2019-Sep-16 08:08 062 23.3
2019-Sep-16 08:03 059 23.3
2019-Sep-16 07:53 059 22.8
2019-Sep-16 07:38 054 22.2
2019-Sep-16 07:23 062 22.2
2019-Sep-16 07:18 062 22.2
2019-Sep-16 07:13 109 22.8
2019-Sep-16 07:08 173 22.2
2019-Sep-16 06:58 233 21.7
2019-Sep-16 06:43 233 20.0
2019-Sep-16 06:33 233 19.4
2019-Sep-16 06:28 233 18.9
2019-Sep-16 06:18 233 18.9
2019-Sep-16 06:08 233 18.9
2019-Sep-16 06:03 241 18.9
2019-Sep-16 05:48 241 17.8
2019-Sep-16 05:38 241 17.8
2019-Sep-16 05:33 241 17.8
2019-Sep-16 05:28 241 17.8
2019-Sep-16 05:18 241 17.8
2019-Sep-16 05:13 241 17.8
2019-Sep-16 05:08 241 17.8
2019-Sep-16 05:03 241 17.8
2019-Sep-16 04:58 241 17.8
2019-Sep-16 04:38 241 17.8
2019-Sep-16 04:33 241 17.8
2019-Sep-16 04:28 241 17.8
2019-Sep-16 03:43 241 17.8
2019-Sep-16 03:38 241 18.3
2019-Sep-16 03:33 241 18.3
2019-Sep-16 03:03 241 18.3
2019-Sep-16 02:58 241 18.3
2019-Sep-16 02:38 241 18.3
2019-Sep-16 02:13 241 18.3
2019-Sep-16 01:38 215 18.3
2019-Sep-16 01:28 205 18.3
2019-Sep-16 01:13 204 18.3
2019-Sep-16 01:08 234 18.3
2019-Sep-16 00:53 225 18.9
2019-Sep-16 00:43 223 18.9
2019-Sep-16 00:38 223 18.9
2019-Sep-16 00:33 223 18.9
2019-Sep-16 00:28 223 18.9
2019-Sep-15 23:58 212 18.9
2019-Sep-15 23:53 212 18.9
2019-Sep-15 23:48 212 18.9
2019-Sep-15 23:38 212 18.9
2019-Sep-15 23:28 212 18.9
2019-Sep-15 23:18 212 19.4
2019-Sep-15 23:13 212 19.4
2019-Sep-15 23:03 211 19.4
2019-Sep-15 22:58 211 19.4
2019-Sep-15 22:38 211 19.4
2019-Sep-15 22:33 211 19.4
2019-Sep-15 22:28 211 19.4
2019-Sep-15 22:13 224 1 gusting 2 20.0
2019-Sep-15 22:08 221 20.0
2019-Sep-15 21:58 213 20.0
2019-Sep-15 21:43 213 20.0
2019-Sep-15 21:38 213 20.0
2019-Sep-15 21:28 209 20.6
2019-Sep-15 21:23 209 20.6
2019-Sep-15 21:18 209 20.6
2019-Sep-15 21:13 209 20.6
2019-Sep-15 21:08 209 20.6
2019-Sep-15 21:03 209 20.6
2019-Sep-15 20:48 209 21.1
2019-Sep-15 20:38 209 21.1
2019-Sep-15 20:33 207 1 gusting 2 21.1
2019-Sep-15 20:18 146 21.7
2019-Sep-15 20:08 146 22.2
2019-Sep-15 19:38 146 22.8
2019-Sep-15 19:18 146 22.8
2019-Sep-15 19:13 146 22.8
2019-Sep-15 19:03 146 22.8
2019-Sep-15 18:38 146 22.8
2019-Sep-15 18:18 142 23.3
2019-Sep-15 18:13 140 23.3
2019-Sep-15 18:03 140 23.3
2019-Sep-15 17:58 140 23.3
2019-Sep-15 17:53 134 23.3
2019-Sep-15 17:48 142 23.9
2019-Sep-15 17:38 130 23.9
2019-Sep-15 17:18 146 23.9
2019-Sep-15 17:08 129 23.9
2019-Sep-15 17:03 107 23.9
2019-Sep-15 16:58 115 23.9
2019-Sep-15 16:43 134 3 gusting 4 24.4
2019-Sep-15 16:38 123 24.4
2019-Sep-15 16:33 108 0 gusting 6 24.4
2019-Sep-15 16:23 095 1 gusting 7 24.4
2019-Sep-15 16:18 114 24.4
2019-Sep-15 16:13 115 6 gusting 5 24.4
2019-Sep-15 16:03 144 24.4
2019-Sep-15 15:58 122 4 gusting 6 24.4
2019-Sep-15 15:33 115 6 gusting 7 24.4
2019-Sep-15 15:28 087 4 gusting 7 24.4
2019-Sep-15 15:23 088 3 gusting 6 25.0
2019-Sep-15 15:08 113 6 gusting 7 24.4
2019-Sep-15 15:03 100 6 gusting 6 25.0
2019-Sep-15 14:48 098 24.4
2019-Sep-15 14:38 107 5 gusting 6 24.4
2019-Sep-15 14:28 112 6 gusting 6 25.0
2019-Sep-15 14:13 060 25.0
2019-Sep-15 13:53 108 3 gusting 7 25.0
2019-Sep-15 13:43 105 3 gusting 5 25.0
2019-Sep-15 13:38 078 25.0
2019-Sep-15 13:28 063 3 gusting 5 25.6
2019-Sep-15 13:18 105 4 gusting 7 25.0
2019-Sep-15 13:13 057 4 gusting 6 25.0
2019-Sep-15 13:08 084 25.6
2019-Sep-15 13:03 090 4 gusting 5 25.6
2019-Sep-15 12:58 083 4 gusting 5 25.6
2019-Sep-15 12:48 067 4 gusting 7 24.4
2019-Sep-15 12:43 071 6 gusting 6 25.0
2019-Sep-15 12:38 051 25.0
2019-Sep-15 12:33 053 25.0
2019-Sep-15 12:28 075 25.0
2019-Sep-15 12:23 067 5 gusting 8 25.6
2019-Sep-15 12:13 105 1 gusting 6 25.0
2019-Sep-15 12:08 058 5 gusting 6 24.4
2019-Sep-15 11:53 069 3 gusting 6 25.0
2019-Sep-15 11:48 048 4 gusting 6 24.4
2019-Sep-15 11:43 063 24.4
2019-Sep-15 11:33 055 2 gusting 6 24.4
2019-Sep-15 11:28 076 6 gusting 6 24.4
2019-Sep-15 11:18 058 25.6
2019-Sep-15 11:08 076 25.0
2019-Sep-15 11:03 065 2 gusting 4 25.0
2019-Sep-15 10:53 069 2 gusting 5 25.0
2019-Sep-15 10:38 048 24.4
2019-Sep-15 10:33 028 24.4
2019-Sep-15 10:28 045 3 gusting 5 25.0
2019-Sep-15 10:08 054 24.4
2019-Sep-15 10:03 342 24.4
2019-Sep-15 09:58 009 24.4
2019-Sep-15 09:48 062 24.4
2019-Sep-15 09:43 026 3 gusting 4 25.0
2019-Sep-15 09:38 040 25.6
2019-Sep-15 09:33 327 25.0
2019-Sep-15 09:28 274 24.4
2019-Sep-15 09:13 243 24.4
2019-Sep-15 09:08 312 1 gusting 4 24.4
2019-Sep-15 09:03 24.4
2019-Sep-15 08:58 23.9
2019-Sep-15 08:48 340 23.3
2019-Sep-15 08:38 309 2 gusting 6 22.8
2019-Sep-15 08:33 272 3 gusting 5 22.8
2019-Sep-15 08:28 282 1 gusting 7 22.8
2019-Sep-15 08:23 294 3 gusting 6 22.2
2019-Sep-15 08:18 302 5 gusting 8 22.2
2019-Sep-15 08:13 286 3 gusting 8 22.2
2019-Sep-15 07:58 303 22.2
2019-Sep-15 07:48 288 1 gusting 6 21.7
2019-Sep-15 07:43 292 21.7
2019-Sep-15 07:33 286 21.1
2019-Sep-15 07:23 281 2 gusting 2 20.6
2019-Sep-15 07:13 250 1 gusting 3 20.0
2019-Sep-15 07:08 257 20.0
2019-Sep-15 07:03 285 19.4
2019-Sep-15 06:53 260 18.9
2019-Sep-15 06:38 260 18.3
2019-Sep-15 06:33 258 18.3
2019-Sep-15 06:28 255 17.8
2019-Sep-15 06:23 271 17.8
2019-Sep-15 06:08 271 17.2
2019-Sep-15 06:03 284 17.2
2019-Sep-15 05:58 249 17.2
2019-Sep-15 05:53 234 16.7
2019-Sep-15 05:48 248 16.7
2019-Sep-15 05:43 254 16.7
2019-Sep-15 05:33 219 16.7
2019-Sep-15 05:23 242 16.7
2019-Sep-15 05:18 242 16.7
2019-Sep-15 05:13 242 16.7
2019-Sep-15 05:03 242 16.7
2019-Sep-15 04:58 242 16.7
2019-Sep-15 04:53 242 16.7
2019-Sep-15 04:48 242 16.7
2019-Sep-15 04:43 242 16.7
2019-Sep-15 04:33 241 16.1
2019-Sep-15 04:28 219 16.1
2019-Sep-15 04:23 219 16.1
2019-Sep-15 04:13 248 16.1
2019-Sep-15 04:08 219 16.7
2019-Sep-15 03:58 217 16.7
2019-Sep-15 03:53 215 16.7
2019-Sep-15 03:43 240 16.7
2019-Sep-15 03:38 240 16.7
2019-Sep-15 03:28 239 16.7
2019-Sep-15 03:23 215 0 gusting 3 16.7
2019-Sep-15 03:18 207 0 gusting 0 16.7
2019-Sep-15 03:08 220 16.7
2019-Sep-15 03:03 227 16.7
2019-Sep-15 02:58 236 16.7
2019-Sep-15 02:53 213 16.7
2019-Sep-15 02:48 212 16.7
2019-Sep-15 02:43 212 16.7
2019-Sep-15 02:38 211 16.7
2019-Sep-15 02:33 221 17.2
2019-Sep-15 02:13 221 17.2
2019-Sep-15 02:08 221 17.2
2019-Sep-15 01:58 221 17.2
2019-Sep-15 01:53 221 17.2
2019-Sep-15 01:48 221 17.2
2019-Sep-15 01:38 221 17.2
2019-Sep-15 01:33 221 17.2
2019-Sep-15 01:18 221 17.2
2019-Sep-15 01:13 221 17.2
2019-Sep-15 01:03 221 17.2
2019-Sep-15 00:58 221 17.2
2019-Sep-15 00:53 221 17.2
2019-Sep-15 00:43 218 17.2
2019-Sep-15 00:38 218 17.8
2019-Sep-15 00:18 252 17.8
2019-Sep-15 00:08 252 17.8
2019-Sep-15 00:03 259 17.8
2019-Sep-14 23:58 259 17.8
2019-Sep-14 23:48 259 17.8
2019-Sep-14 23:28 241 18.3
2019-Sep-14 23:18 241 18.3
2019-Sep-14 23:08 241 18.3
2019-Sep-14 22:28 244 18.3
2019-Sep-14 22:23 244 18.9
2019-Sep-14 22:13 244 18.3
2019-Sep-14 22:08 246 18.9
2019-Sep-14 22:03 246 18.9